Weather History for St. Cloud, MN

Change the Weather History Date:

Friday, May 3, 2013

  Actual Average Record
Temperature  
Mean Temperature 36 °F 52 °F  
Max Temperature 43 °F 65 °F 94 °F (1949)
Min Temperature 28 °F 40 °F 18 °F (1907)
Degree Days  
Heating Degree Days 29 13  
Month to date heating degree days 79 40  
Since 1 July heating degree days 8533 8207  
Cooling Degree Days 0 0  
Month to date cooling degree days 0 0  
Year to date cooling degree days 0 2  
Moisture  
Dew Point 27 °F    
Average Humidity 69    
Maximum Humidity 89    
Minimum Humidity 48    
Precipitation  
Precipitation 0.02 in 0.10 in 2.96 in (1912)
Month to date precipitation 0.02 0.29  
Year to date precipitation 7.33 5.65  
Snow  
Snow 0.00 in 0.00 in 0.50 in (1954)
Month to date snowfall 0.0 0.0  
Since 1 July snowfall 78.5 45.7  
Snow Depth 0.00 in    
Sea Level Pressure  
Sea Level Pressure 30.31 in    
Wind  
Wind Speed 10 mph (NNE)    
Max Wind Speed 20 mph    
Max Gust Speed 24 mph    
Visibility 10 miles    
Events Rain    
T = Trace of Precipitation, MM = Missing Value Source: NWS Daily Summary

Daily Weather History Graph

Daily Weather History Graph

Search for Another Location

Airport:

Trip Planner

Search our weather history database for the weather conditions in past years. The results will help you decide how hot, cold, wet, or windy it might be!

Date:

Astronomy

May. 03, 2013 Rise Set
Actual Time 6:00 AM CDT 8:26 PM CDT
Civil Twilight 5:27 AM CDT 8:59 PM CDT
Nautical Twilight 4:46 AM CDT 9:40 PM CDT
Astronomical Twilight 4:00 AM CDT 10:27 PM CDT
Moon 2:44 AM CDT (5/3) 2:03 PM CDT (5/3)
Length of Visible Light 15h 31m
Length of Day
14h 25m
Last Quarter, 37% of the Moon is Illuminated
May 3
Last Quarter
May 9
New
May 17
First Quarter
May 24
Full
May 31
Last Quarter

Hourly Weather History & Observations

Time (CDT) Temp. Windchill Dew Point Humidity Pressure Visibility Wind Dir Wind Speed Gust Speed Precip Events Conditions
12:53 AM 30.0 °F 22.4 °F 21.9 °F 72% 30.50 in 10.0 mi North 8.1 mph - N/A   Clear
1:53 AM 28.9 °F 23.9 °F 21.9 °F 75% 30.48 in 10.0 mi North 4.6 mph - N/A   Clear
2:53 AM 28.0 °F 20.8 °F 21.9 °F 78% 30.46 in 10.0 mi North 6.9 mph - N/A   Clear
3:53 AM 28.0 °F 20.8 °F 21.0 °F 75% 30.45 in 10.0 mi North 6.9 mph - N/A   Clear
4:53 AM 28.0 °F 20.8 °F 21.9 °F 78% 30.44 in 10.0 mi North 6.9 mph - N/A   Clear
5:53 AM 28.9 °F 22.8 °F 21.9 °F 75% 30.43 in 10.0 mi North 5.8 mph - N/A   Clear
6:53 AM 28.9 °F 20.4 °F 23.0 °F 78% 30.42 in 10.0 mi North 9.2 mph - N/A   Clear
7:53 AM 32.0 °F 24.2 °F 21.9 °F 66% 30.40 in 10.0 mi North 9.2 mph - N/A   Clear
8:53 AM 34.0 °F 26.0 °F 21.9 °F 61% 30.40 in 10.0 mi North 10.4 mph 18.4 mph N/A   Clear
9:53 AM 36.0 °F 26.7 °F 23.0 °F 59% 30.37 in 10.0 mi North 15.0 mph 19.6 mph N/A   Overcast
10:53 AM 37.0 °F 28.5 °F 21.0 °F 52% 30.36 in 10.0 mi North 13.8 mph 18.4 mph N/A   Overcast
11:53 AM 39.9 °F 33.4 °F 21.9 °F 49% 30.34 in 10.0 mi North 10.4 mph - N/A   Overcast
12:53 PM 41.0 °F 33.5 °F 24.1 °F 51% 30.32 in 10.0 mi North 13.8 mph 21.9 mph N/A   Overcast
1:53 PM 43.0 °F 36.0 °F 25.0 °F 49% 30.28 in 10.0 mi NNE 13.8 mph 19.6 mph N/A   Overcast
2:53 PM 42.1 °F 36.1 °F 25.0 °F 51% 30.28 in 10.0 mi NNE 10.4 mph 19.6 mph N/A   Overcast
3:53 PM 41.0 °F 33.5 °F 27.0 °F 57% 30.26 in 10.0 mi NE 13.8 mph 21.9 mph N/A   Overcast
4:53 PM 42.1 °F 37.7 °F 26.1 °F 53% 30.25 in 10.0 mi ENE 6.9 mph - N/A   Overcast
5:53 PM 39.9 °F 33.9 °F 30.0 °F 68% 30.25 in 10.0 mi NE 9.2 mph - N/A   Overcast
6:53 PM 39.0 °F 32.8 °F 30.9 °F 73% 30.26 in 10.0 mi ENE 9.2 mph - N/A   Overcast
7:36 PM 37.4 °F 31.4 °F 33.8 °F 87% 30.20 in 10.0 mi NE 8.1 mph 18.4 mph 0.01 in Rain Light Rain
7:53 PM 37.0 °F 30.4 °F 33.1 °F 86% 30.26 in 9.0 mi NE 9.2 mph - 0.01 in   Overcast
8:39 PM 35.6 °F 31.7 °F 33.8 °F 93% 30.20 in 10.0 mi ENE 4.6 mph - N/A   Overcast
8:43 PM 35.6 °F 27.5 °F 33.8 °F 93% 30.20 in 10.0 mi ENE 11.5 mph 16.1 mph N/A   Overcast
8:53 PM 36.0 °F 28.0 °F 32.0 °F 86% 30.25 in 10.0 mi NE 11.5 mph 17.3 mph N/A   Overcast
9:14 PM 35.6 °F 28.0 °F 32.0 °F 87% 30.19 in 10.0 mi NE 10.4 mph - N/A   Overcast
9:22 PM 35.6 °F 29.2 °F 32.0 °F 87% 30.19 in 10.0 mi NE 8.1 mph - N/A   Overcast
9:39 PM 35.6 °F 28.0 °F 32.0 °F 87% 30.20 in 10.0 mi NE 10.4 mph - N/A   Overcast
9:53 PM 35.1 °F 26.9 °F 30.9 °F 85% 30.26 in 9.0 mi NE 11.5 mph - N/A   Overcast
10:53 PM 33.1 °F 24.9 °F 30.0 °F 89% 30.26 in 7.0 mi NE 10.4 mph - 0.01 in Rain Light Rain
11:33 PM 33.8 °F 27.7 °F 30.2 °F 87% 30.20 in 10.0 mi NNE 6.9 mph - 0.00 in   Overcast
11:53 PM 33.1 °F 27.7 °F 30.0 °F 89% 30.26 in 8.0 mi NNE 5.8 mph - 0.00 in   Overcast